Erzurum, Turkey

7:06 AM +03 on May 30, 2017 (GMT +0300)
Erzurum

Weather History for LTCE - February, 2014

Change the Weather History Date:

Thursday, February 27, 2014

  Actual Average Record
Temperature  
Mean Temperature 34 °F -  
Max Temperature 41 °F 36 °F 46 °F (1997)
Min Temperature 27 °F 21 °F -16 °F (2007)
Degree Days  
Heating Degree Days 31    
Moisture  
Dew Point 29 °F    
Average Humidity 87    
Maximum Humidity 100    
Minimum Humidity 48    
Precipitation  
Precipitation 0.00 in 0.04 in - ()
Sea Level Pressure  
Sea Level Pressure 30.06 in    
Wind  
Wind Speed 2 mph ()    
Max Wind Speed 12 mph    
Max Gust Speed -    
Visibility 4.0 miles    
Events Fog , Snow    
Averages and records for this station are not official NWS values.
T = Trace of Precipitation, MM = Missing Value Source: Averaged Metar Reports

Daily Weather History Graph

Daily Weather History Graph

Search for Another Location

Airport or City:

Trip Planner

Search our weather history database for the weather conditions in past years. The results will help you decide how hot, cold, wet, or windy it might be!

Date:

Astronomy

Feb. 27, 2014 Rise Set
Actual Time 5:52 AM EET 5:04 PM EET
Civil Twilight 5:24 AM EET 5:31 PM EET
Nautical Twilight 4:53 AM EET 6:03 PM EET
Astronomical Twilight 4:22 AM EET 6:34 PM EET
Moon 4:08 AM EET (2/27) 3:04 PM EET (2/27)
Length of Visible Light 12h 07m
Length of Day
11h 12m
Waning Crescent, 5% of the Moon is Illuminated
Feb 27
Waning Crescent
Mar 1
New
Mar 8
First Quarter
Mar 16
Full
Mar 24
Last Quarter

Hourly Weather History & Observations

Time (EET) Temp. Windchill Dew Point Humidity Pressure Visibility Wind Dir Wind Speed Gust Speed Precip Events Conditions
12:20 AM 32.0 °F - 32.0 °F 100% 30.06 in 4.3 mi Calm Calm - N/A   Mostly Cloudy
12:47 AM 32.0 °F - 32.0 °F 100% 30.06 in 6.2 mi East 1.2 mph - N/A Snow Light Snow
12:50 AM 32.0 °F - 32.0 °F 100% 30.06 in 6.2 mi ENE 1.2 mph - N/A Snow Light Snow
1:20 AM 32.0 °F - 32.0 °F 100% 30.06 in 3.7 mi Calm Calm - N/A Snow Light Snow
1:44 AM 32.0 °F - 32.0 °F 100% 30.06 in 3.7 mi Calm Calm - N/A   Mostly Cloudy
1:50 AM 32.0 °F - 32.0 °F 100% 30.06 in 3.7 mi Calm Calm - N/A   Mostly Cloudy
2:00 AM 31 °F - 31 °F 100%  in 4 mi Calm Calm - - Snow Light Snow
2:11 AM 30.2 °F - 30.2 °F 100% 30.06 in 0.3 mi Calm Calm - N/A Fog Patches of Fog
2:20 AM 30.2 °F - 30.2 °F 100% 30.06 in 0.3 mi SW 1.2 mph - N/A Fog Patches of Fog
2:50 AM 30.2 °F - 30.2 °F 100% 30.06 in - Calm Calm - N/A Fog Patches of Fog
3:13 AM 30.2 °F - 30.2 °F 100% 30.06 in 0.6 mi West 2.3 mph - N/A Fog , Snow Light Snow
3:20 AM 30.2 °F - 30.2 °F 100% 30.06 in 1.2 mi WSW 2.3 mph - N/A Snow Light Snow
3:50 AM 30.2 °F 26.7 °F 30.2 °F 100% 30.06 in 0.7 mi SW 3.5 mph - N/A Fog Patches of Fog
4:00 AM 30.2 °F - 30.2 °F 100% 30.06 in 0.3 mi WSW 2.3 mph - N/A Fog , Snow Light Snow
4:20 AM 30.2 °F - 30.2 °F 100% 30.06 in 0.7 mi West 2.3 mph - N/A Snow Light Snow
4:50 AM 30.2 °F - 30.2 °F 100% 30.06 in 0.7 mi Variable 1.2 mph - N/A Fog , Snow Light Snow
5:00 AM 30 °F - 30 °F 100%  in 1 mi NW 1.2 mph - - Snow Light Snow
5:20 AM 30.2 °F - 30.2 °F 100% 30.06 in 0.7 mi Variable 1.2 mph - N/A Fog , Snow Light Snow
5:45 AM 28.4 °F - 28.4 °F 100% 30.06 in 0.2 mi SSE 2.3 mph - N/A Fog Light Freezing Fog
5:50 AM 28.4 °F 24.6 °F 28.4 °F 100% 30.06 in 0.2 mi SSE 3.5 mph - N/A Fog Light Freezing Fog
6:20 AM 30.2 °F 26.7 °F 30.2 °F 100% 30.06 in 0.3 mi South 3.5 mph - N/A Fog Light Freezing Fog
6:50 AM 30.2 °F - 30.2 °F 100% 30.06 in 0.2 mi Variable 2.3 mph - N/A Fog Light Freezing Fog
7:20 AM 32.0 °F - 32.0 °F 100% 30.09 in 0.2 mi Variable 2.3 mph - N/A Fog Light Freezing Fog
7:50 AM 32.0 °F - 32.0 °F 100% 30.09 in 0.3 mi Variable 1.2 mph - N/A Fog Light Freezing Fog
8:00 AM 31 °F - 31 °F 100%  in 0 mi SW 1.2 mph - - Fog Fog
8:01 AM 32.0 °F - 32.0 °F 100% 30.09 in 0.7 mi Calm Calm - N/A   Mostly Cloudy
8:15 AM 32.0 °F 28.7 °F 32.0 °F 100% 30.09 in 0.4 mi North 3.5 mph - N/A Fog Patches of Fog
8:20 AM 32.0 °F 28.7 °F 32.0 °F 100% 30.09 in 0.3 mi NNE 3.5 mph - N/A Fog Fog
8:42 AM 32.0 °F - 32.0 °F 100% 30.09 in 0.3 mi Variable 2.3 mph - N/A Fog Patches of Fog
8:50 AM 32.0 °F - 32.0 °F 100% 30.09 in 0.5 mi Variable 2.3 mph - N/A Fog Patches of Fog
9:01 AM 32.0 °F - 32.0 °F 100% 30.09 in 0.7 mi Variable 2.3 mph - N/A Fog Patches of Fog
9:12 AM 33.8 °F - 33.8 °F 100% 30.09 in 0.9 mi Variable 2.3 mph - N/A   Mostly Cloudy
9:20 AM 33.8 °F - 33.8 °F 100% 30.09 in 0.9 mi Variable 2.3 mph - N/A   Mostly Cloudy
9:49 AM 35.6 °F - 35.6 °F 100% 30.09 in 1.7 mi Variable 1.2 mph - N/A   Mostly Cloudy
9:50 AM 35.6 °F - 35.6 °F 100% 30.09 in 1.7 mi Variable 1.2 mph - N/A   Mostly Cloudy
10:03 AM 35.6 °F 32.8 °F 35.6 °F 100% 30.09 in 3.7 mi NNE 3.5 mph - N/A   Mostly Cloudy
10:20 AM 35.6 °F - 35.6 °F 100% 30.09 in 4.3 mi Variable 2.3 mph - N/A   Mostly Cloudy
10:50 AM 37.4 °F 34.9 °F 32.0 °F 81% 30.09 in 5.0 mi NW 3.5 mph - N/A   Mostly Cloudy
11:00 AM 37 °F - 31 °F 73%  in 5 mi NW 3.5 mph - -   Mist
11:20 AM 37.4 °F 33.8 °F 30.2 °F 75% 30.06 in 5.0 mi West 4.6 mph - N/A   Mostly Cloudy
11:50 AM 37.4 °F 32.8 °F 30.2 °F 75% 30.06 in 6.2 mi NW 5.8 mph - N/A   Mostly Cloudy
12:20 PM 39.2 °F 37.0 °F 28.4 °F 65% 30.06 in 6.2 mi Variable 3.5 mph - N/A   Mostly Cloudy
12:50 PM 41.0 °F - 28.4 °F 61% 30.04 in 6.2 mi WSW 2.3 mph - N/A   Mostly Cloudy
1:20 PM 41.0 °F 36.4 °F 26.6 °F 57% 30.04 in 6.2 mi SW 6.9 mph - N/A   Mostly Cloudy
1:50 PM 39.2 °F 33.0 °F 26.6 °F 61% 30.04 in 6.2 mi SW 9.2 mph - N/A   Mostly Cloudy
2:00 PM 39 °F - 26 °F 48%  in 12 mi SW 9.2 mph - -   Partly Cloudy
2:20 PM 41.0 °F 34.7 °F 26.6 °F 57% 30.04 in 6.2 mi SW 10.4 mph - N/A   Mostly Cloudy
2:50 PM 39.2 °F 32.0 °F 23.0 °F 52% 30.04 in 6.2 mi WSW 11.5 mph - N/A   Mostly Cloudy
3:20 PM 39.2 °F 33.6 °F 24.8 °F 56% 30.04 in 6.2 mi SW 8.1 mph - N/A   Mostly Cloudy
3:50 PM 39.2 °F 33.6 °F 24.8 °F 56% 30.04 in 6.2 mi WSW 8.1 mph - N/A   Mostly Cloudy
4:20 PM 37.4 °F 33.8 °F 26.6 °F 65% 30.04 in 6.2 mi Variable 4.6 mph - N/A   Mostly Cloudy
4:50 PM 37.4 °F 34.9 °F 26.6 °F 65% 30.04 in 6.2 mi Variable 3.5 mph - N/A   Mostly Cloudy
5:00 PM 37 °F - 26 °F 53%  in 12 mi SW 3.5 mph - -   Mostly Cloudy
5:20 PM 35.6 °F 31.7 °F 24.8 °F 65% 30.04 in 6.2 mi WSW 4.6 mph - N/A   Mostly Cloudy
5:50 PM 35.6 °F 30.7 °F 24.8 °F 65% 30.04 in 6.2 mi West 5.8 mph - N/A   Mostly Cloudy
6:20 PM 33.8 °F - 24.8 °F 70% 30.04 in 6.2 mi Variable 2.3 mph - N/A   Mostly Cloudy
6:50 PM 30.2 °F - 24.8 °F 80% 30.04 in 6.2 mi West 1.2 mph - N/A   Scattered Clouds
7:20 PM 30.2 °F - 26.6 °F 86% 30.04 in 6.2 mi Variable 2.3 mph - N/A   Scattered Clouds
7:50 PM 28.4 °F 24.6 °F 26.6 °F 93% 30.04 in 6.2 mi SW 3.5 mph - N/A   Scattered Clouds
8:00 PM 29 °F - 28 °F 93%  in 12 mi SW 3.5 mph - -   Partly Cloudy
8:20 PM 28.4 °F - 26.6 °F 93% 30.04 in 6.2 mi SSE 1.2 mph - N/A   Scattered Clouds
8:50 PM 28.4 °F - 24.8 °F 86% 30.04 in 6.2 mi Variable 2.3 mph - N/A   Scattered Clouds
9:20 PM 28.4 °F - 24.8 °F 86% 30.04 in 6.2 mi Calm Calm - N/A   Scattered Clouds
9:50 PM 28.4 °F - 24.8 °F 86% 30.04 in 6.2 mi Variable 1.2 mph - N/A   Mostly Cloudy
10:20 PM 28.4 °F - 24.8 °F 86% 30.04 in 6.2 mi East 2.3 mph - N/A   Mostly Cloudy
10:50 PM 30.2 °F 25.4 °F 26.6 °F 86% 30.04 in 6.2 mi ESE 4.6 mph - N/A   Mostly Cloudy
11:00 PM 30 °F - 25 °F 76%  in 12 mi ESE 4.6 mph - -   Partly Cloudy
11:20 PM 28.4 °F - 26.6 °F 93% 30.04 in 6.2 mi Variable 2.3 mph - N/A   Mostly Cloudy
11:50 PM 28.4 °F - 26.6 °F 93% 30.04 in 6.2 mi SSE 1.2 mph - N/A   Mostly Cloudy